Regional Weather Roundup
Issued by NWS

Home | Current Version | Previous Version | Graphics & Text | Print | Product List | Glossary On
Versions: 1 2 3 4 5 6 7 8 9 10 11 12 13 14 15 16 17 18 19 20 21 22 23 24 25 26 27 28 29 30 31 32 33 34 35 36 37 38 39 40 41 42 43 44 45 46 47 48 49 50
000
ASUS44 KMEG 291200
RWRTN
TENNESSEE HOURLY STATE WEATHER ROUNDUP
NATIONAL WEATHER SERVICE MEMPHIS TN
700 AM CDT FRI JUL 29 2016

TNZ002-004-019-021-049-052-054-088>092-291300-
WEST TENNESSEE

CITY           SKY/WX    TMP DP  RH WIND       PRES   REMARKS
MEMPHIS INTL   CLOUDY    77  72  84 S9        29.95F
NWS MEMPHIS      N/A     76 N/A N/A MISG        N/A
JACKSON        CLOUDY    75  74  96 S8        29.95F
DYERSBURG      CLOUDY   N/A N/A N/A MISG        N/A
UNION CITY     CLOUDY    73  73 100 S3        29.93S
PARIS          PTSUNNY   73  73 100 SW5       29.96S
LEXINGTON      CLOUDY    75  73  94 S6        29.97S
$$

TNZ008-025-027-028-033-062-065-066-291300-
NORTH MIDDLE TENNESSEE

CITY           SKY/WX    TMP DP  RH WIND       PRES   REMARKS
NASHVILLE      PTSUNNY   77  73  87 S6        29.97S
CLARKSVILLE    CLOUDY    75  73  93 CALM      29.95R
COOKEVILLE     CLOUDY    72  72 100 CALM      30.01R
CROSSVILLE     MOSUNNY   70  69  97 CALM      30.05S
$$

TNZ061-075-076-078-094-096-097-291300-
SOUTH MIDDLE TENNESSEE

CITY           SKY/WX    TMP DP  RH WIND       PRES   REMARKS
TULLAHOMA      CLOUDY    72  72 100 CALM      30.04R
WINCHESTER     CLOUDY    73  72  94 CALM      30.03S
MCMINNVILLE    CLOUDY    72  72 100 CALM      30.03R
COLUMBIA       CLOUDY   N/A N/A N/A S5        29.98S
SHELBYVILLE    CLOUDY    75  75 100 S5        30.02R
$$

TNZ017-018-042-046-047-291300-
NORTHEAST TENNESSEE

CITY           SKY/WX    TMP DP  RH WIND       PRES   REMARKS
TRI CITIES     PTSUNNY   71  68  90 S3        30.03S
$$

TNZ012-013-036-069-073-074-291300-
CENTRAL EAST TENNESSEE

CITY           SKY/WX    TMP DP  RH WIND       PRES   REMARKS
KNOXVILLE      CLOUDY    74  71  91 SW8       30.01R
OAK RIDGE      CLOUDY    74  72  93 CALM      30.02R
GATLINBURG     CLOUDY    72  70  94 CALM      30.02R
$$

TNZ083-085-099-291300-
SOUTHEAST TENNESSEE

CITY           SKY/WX    TMP DP  RH WIND       PRES   REMARKS
CHATTANOOGA    PTSUNNY   77  71  82 S5        30.02R
$$

SKY/WX REPORTED AS FAIR MEANS FEW OR NO CLOUDS BELOW
12 THOUSAND FEET.




USA.gov is the U.S. government's official web portal to all federal, state and local government web resources and services.